Tracking 19634 objects as of 23-May-2019
HD Live streaming from Space Station
objects crossing your sky now

AMOS 2

Track AMOS 2 now!
AMOS 2 is classified as:


NORAD ID: 28132
Int'l Code: 2003-059A
Perigee: 36,027.5 km
Apogee: 36,055.9 km
Inclination: 2.3 °
Period: 1,448.8 minutes
Semi major axis: 42412 km
RCS: 36.2156 m2 (large)
Launch date: December 27, 2003
Source: Israel (ISRA)
Launch site: TYURATAM MISSILE AND SPACE COMPLEX (TTMTR)

Ku-band communications, Europe, Middle East, East Coast of USA.
aabbcc
Your satellite tracking list
Your tracking list is empty




NASA's NSSDC Master Catalog

Two Line Element Set (TLE):
1 28132U 03059A   19141.95171304 +.00000100 +00000-0 +00000-0 0  9990
2 28132 002.2705 086.6030 0003343 335.3908 219.5419 00.99393657056363
Source of the keplerian elements: AFSPC